Regional Weather Roundup
Issued by NWS Charleston, SC

Current Version | Previous Version | Graphics & Text | Print | Product List | Glossary On
Versions: 1 2 3 4 5 6 7 8 9 10 11 12 13 14 15 16 17 18 19 20 21 22 23 24 25 26 27 28 29 30 31 32 33 34 35 36 37 38 39 40 41 42 43 44 45 46 47 48 49 50
439
ASUS42 KCHS 170727
RWRCHS

REGIONAL WEATHER ROUNDUP
NATIONAL WEATHER SERVICE CHARLESTON SC
200 AM EST TUE JAN 17 2017

NOTE: "FAIR" INDICATES FEW OR NO CLOUDS BELOW 12,000 FEET WITH NO
SIGNIFICANT WEATHER AND/OR OBSTRUCTIONS TO VISIBILITY.

NOT ALL STATIONS ARE QUALITY CONTROLLED. USE DATA WITH CAUTION...
ESPECIALLY DEWPOINT OBSERVATIONS.

SCZ027-030-031-034>040-042>050-170800-
...SOUTHEAST SOUTH CAROLINA...

CITY           SKY/WX    TMP DP  RH WIND       PRES   REMARKS
N CHARLESTON   CLOUDY    54  52  93 CALM      30.25F
WATERFRONT PRK   N/A     56  55  97 VRB2      30.26S
MOUNT PLEASANT LGT RAIN  54  54 100 CALM      30.25F
JOHNS ISLAND   CLOUDY    57  55  94 CALM      30.26F
PINOPOLIS        N/A     52  52 100 CALM      30.19F
MONCKS CORNER  FOG       48  48 100 CALM      30.26F VSB 1/4
SUMMERVILLE    CLOUDY   N/A N/A N/A CALM      30.27F FOG
BEAUFORT MCAS  CLOUDY    57  56  96 NE3       30.26F FOG
BEAUFORT ARPT  CLOUDY    55  54  94 CALM      30.25F FOG
HILTON HEAD IS FOG       57  55  94 CALM      30.26F VSB 1
WALTERBORO     FOG       59 N/A N/A CALM      30.27F VSB 1/4
ALLENDALE      CLOUDY    61  59  94 SE7       30.25S

...SOUTHERN MIDLANDS AND PEE DEE...

CITY           SKY/WX    TMP DP  RH WIND       PRES   REMARKS
GEORGETOWN     FAIR      48  48 100 CALM      30.27F FOG
KINGSTREE      CLOUDY    52  50  93 CALM      30.27F FOG
ORANGEBURG     FOG       56  56 100 CALM      30.26F VSB 1/2
BARNWELL       FOG       61  61 100 SE3       30.26R VSB 3/4
AIKEN          FOG       54  54 100 NE3       30.29F VSB 1/2
MANNING        FOG       52  52 100 CALM      30.27F VSB 1
COLUMBIA       FOG       54  53  97 CALM      30.27S VSB 1/2
SUMTER         FOG       52  52 100 CALM      30.25F VSB 1/2
FLORENCE       CLOUDY    53  51  93 CALM      30.28F
MYRTLE BEACH   CLOUDY    54  46  76 E3        30.28F
N MYRTLE BEACH PTCLDY    49  49 100 N3        30.27F

$$

GAZ063-065-086>088-099>101-113>116-118-119-134>141-150-170800-
...SOUTHEAST GEORGIA...

CITY           SKY/WX    TMP DP  RH WIND       PRES   REMARKS
SAVANNAH ARPT  FOG       58  56  93 CALM      30.26F VSB 1/4
HUNTER AAF     FOG       57  57 100 CALM      30.23F VSB 1/2
FORT STEWART   FOG       57  56  98 CALM      30.24F VSB 1/2
STATESBORO     CLOUDY    60  60 100 S6        30.26R FOG
SYLVANIA       CLOUDY   N/A N/A N/A S3        30.26S
CLAXTON        CLOUDY   N/A N/A N/A CALM      30.26S

...CSRA...CENTRAL AND FAR SOUTHEAST GEORGIA...

CITY           SKY/WX    TMP DP  RH WIND       PRES   REMARKS
THOMSON        CLOUDY    61  61 100 CALM      30.29F
AUGUSTA-BUSH   FOG       59  57  93 CALM      30.25S VSB 1/4
AUGUSTA-DANIEL FOG       58  55  90 SE3       30.26S VSB 1/2
SWAINSBORO     CLOUDY    61  59  94 SE5       30.26R
VIDALIA        CLOUDY    59  59 100 S6        30.24F FOG
EASTMAN        FOG       53  53 100 SE3       30.25F VSB 1/2
HAZLEHURST     CLOUDY    59  59 100 S7        30.23S FOG
ALMA           FOG       59  59 100 SE5       30.24F VSB 3/4
WAYCROSS       FOG       62  62 100 SE3       30.25F VSB 1/4
JESUP          FOG       59  57  94 CALM      30.26F VSB<1/4
BAXLEY         FOG       59  59 100 CALM      30.24F VSB 3/4
BRUNSWICK      FOG       61  61 100 CALM      30.27S VSB 1/4
SAINT SIMONS   FOG       60  59  96 N3        30.26S VSB 1/4

$$

SCZ027-028-034-036>038-045-046-048>050-GAZ119-141-170800-
...LAKE AND SUPPLEMENTAL COASTAL OBSERVATIONS...

STATION/POSITION TIME  TEMP    WIND        PRES    WAVE   SWELL
                       AIR SEA DIR/SP/G            HT/PER HT/PER/DIR
                 (UTC) (F)     (DEG/KT/KT) (MB)    (FT/S) (FT/S/D)
WINYAH BAY       0645   53      60/  4     1024.0F
LAKE MURRAY      0620   53      CALM  /  2 1024.7F
ACE BASIN NERRS  0630   56        CALM     1025.0S
FORT PULASKI     0700   56 56   20/  1/  2 1024.8
SAPELO ISLAND    0600   59      20/  2     1025.0

$$

ANZ835-935-AMZ111-154-330-350-352-354-370-450-454-472-170800-
...C-MAN AND BUOY OBSERVATIONS...

STATION/POSITION TIME  TEMP    WIND        PRES    WAVE   SWELL
                       AIR SEA DIR/SP/G            HT/PER HT/PER/DIR
                 (UTC) (F)     (DEG/KT/KT) (MB)    (FT/S) (FT/S/D)
BUOY 41004       0650   70 70  120/  4/  6 1024.3S   4/ 9   3/100/ 9
BUOY 41008       0650   60 59   80/  4/  4 1024.2F   3/ 6   3/ 50/ 6
FOLLY BEACH CMAN 0700   55      20/  4/  4 1025.1F
CAPERS NEARSHORE 0608   54 54   30/  6/  8 1024.8F
FRIPP NEARSHORE  0708   56 56   30/  4/  6 1024.2F


STATION/POSITION TIME  TEMP    WIND        PRES    WAVE   SWELL
                       AIR SEA DIR/SP/G            HT/PER HT/PER/DIR
                 (UTC) (F)     (DEG/KT/KT) (MB)    (FT/S) (FT/S/D)
5E ST. MARYS GA  0700      61                N/A     3/11   2/110/11
FRYING PAN BUOY  0710   67 70   80/  8/ 12 1024.5
BUOY 41025       0650   56 73   10/ 10/ 12 1025.3R   3/10   3/100/10
CAPE LOOKOUT NC  0700   49      20/  4/  4 1024.9F
BUOY 41002       0650   70 72  170/ 12/ 16 1025.5S   3/ 8   3/ 40/ 8
BUOY 41010       NOT AVBL
ST AUGUSTINE FL  0700   65 64   CALM  /  1 1024.6F


$$




USA.gov is the U.S. government's official web portal to all federal, state and local government web resources and services.